Regional Weather Roundup
Issued by NWS

Home | Current Version | Previous Version | Text Only | Print | Product List | Glossary On
Versions: 1 2 3 4 5 6 7 8 9 10 11 12 13 14 15 16 17 18 19 20 21 22 23 24 25 26 27 28 29 30 31 32 33 34 35 36 37 38 39 40 41 42 43 44 45 46 47 48 49 50
000
ASUS42 KFFC 290803
RWRGA
WEATHER ROUNDUP FOR GEORGIA
NATIONAL WEATHER SERVICE PEACHTREE CITY GA
300 AM EST SAT NOV 29 2014

NOTE: "FAIR" INDICATES FEW OR NO CLOUDS BELOW 12,000 FEET WITH NO
SIGNIFICANT WEATHER AND/OR OBSTRUCTIONS TO VISIBILITY.

* = USE WITH CAUTION. THE STATIONS MARKED WITH AN ASTERISK MAY NOT
REPORT WEATHER SUCH AS PRECIPITATION, FOG, OR THUNDER AND ARE NOT
QUALITY CONTROLLED BY NWS.

THE REMARK "TC" DENOTES TEMPERATURE READING IN DEGREES CELSIUS.

GAZ001>058-290900-
NORTH GEORGIA

CITY           SKY/WX    TMP DP  RH WIND       PRES   REMARKS
ATLANTA        PTCLDY    37  20  50 CALM      30.25F
ATHENS         CLEAR     28  25  88 CALM      30.27F
CHAMBLEE       CLEAR     28  23  81 CALM      30.26R
PEACHTREE CITY CLEAR     27  25  92 CALM      30.27F
ROME           CLEAR     27  23  85 CALM      30.25R
WEST ATLANTA   CLEAR     29  25  85 CALM      30.26S
GAINESVILLE    CLEAR     33  28  81 CALM      30.26S
CARTERSVILLE   CLEAR     27  22  81 CALM      30.26S


CITY           SKY/WX    TMP DP  RH WIND       PRES   REMARKS
DALTON*        CLEAR     30  27  86 SW3       30.25R
$$

GAZ059>098-102>109-290900-
CENTRAL GEORGIA

CITY           SKY/WX    TMP DP  RH WIND       PRES   REMARKS
AUGUSTA-BUSH   CLEAR     27  25  92 CALM      30.33R
AUGUSTA-DANIEL CLEAR     37  29  72 CALM      30.31S
COLUMBUS       CLEAR     32  27  81 CALM      30.28S
MACON          CLEAR     28  28 100 CALM      30.30S
ROBINS AFB     CLEAR     32  31  95 CALM      30.29S


CITY           SKY/WX    TMP DP  RH WIND       PRES   REMARKS
LAGRANGE*      CLEAR     31  29  92 CALM      30.27S
SYLVANIA*      CLEAR     33  32  97 CALM      30.32S FOG
MILLEDGEVILLE* CLEAR     32  32 100 CALM      30.30S
$$

GAZ099>101-110>166-290900-
SOUTH GEORGIA

CITY           SKY/WX    TMP DP  RH WIND       PRES   REMARKS
SAVANNAH       CLEAR     34  30  85 CALM      30.33S
VALDOSTA       CLEAR     32  32 100 CALM      30.31S FOG
ALMA           CLEAR     31  30  96 CALM      30.31S FOG
ST SIMONS      CLEAR     37  34  89 CALM      30.32S
FT STEWART     CLEAR     31  29  93 CALM      30.31S
ALBANY         CLEAR     32  30  92 CALM      30.32S
HUNTER AFB     CLEAR     32  31  96 W2        30.31R
MOODY AFB      CLEAR     33  31  92 E2        30.30S
BRUNSWICK      CLEAR     34  32  93 CALM      30.33S


CITY           SKY/WX    TMP DP  RH WIND       PRES   REMARKS
BAINBRIDGE*    CLEAR     37  36  93 CALM      30.30F
MOULTRIE*      CLEAR     36  36 100 CALM      30.31S
VIDALIA*       CLEAR     34  34 100 CALM      30.30F
WAYCROSS*      CLEAR     37  36  97 CALM      30.31F
DOUGLAS*       CLEAR     36  34  93 CALM      30.32F
$$


USA.gov is the U.S. government's official web portal to all federal, state and local government web resources and services.